Weather History for Altus AFB, OK

Change the Weather History Date:

Sunday, October 12, 2014

  Actual Average Record
Temperature  
Mean Temperature 62 °F -  
Max Temperature 84 °F 75 °F 88 °F (2007)
Min Temperature 41 °F 52 °F 39 °F (2006)
Degree Days  
Heating Degree Days 2    
Growing Degree Days 12 (Base 50)    
Moisture  
Dew Point 50 °F    
Average Humidity 85    
Maximum Humidity 100    
Minimum Humidity 33    
Precipitation  
Precipitation 0.87 in - - ()
Sea Level Pressure  
Sea Level Pressure 29.79 in    
Wind  
Wind Speed 7 mph (SE)    
Max Wind Speed 56 mph    
Max Gust Speed 75 mph    
Visibility 6 miles    
Events Fog , Rain , Thunderstorm    
Averages and records for this station are not official NWS values.
T = Trace of Precipitation, MM = Missing Value Source: NWS Daily Summary

Daily Weather History Graph

Daily Weather History Graph

Search for Another Location

Airport:

Trip Planner

Search our weather history database for the weather conditions in past years. The results will help you decide how hot, cold, wet, or windy it might be!

Date:

Astronomy

Oct. 12, 2014 Rise Set
Actual Time 7:40 AM CDT 7:06 PM CDT
Civil Twilight 7:14 AM CDT 7:31 PM CDT
Nautical Twilight 6:45 AM CDT 8:00 PM CDT
Astronomical Twilight 6:16 AM CDT 8:29 PM CDT
Moon 10:33 PM CDT (10/12) 11:55 AM CDT (10/12)
Length of Visible Light 12h 16m
Length of Day
11h 25m
Waning Gibbous, 79% of the Moon is Illuminated
Oct 12
Waning Gibbous
Oct 15
Last Quarter
Oct 23
New
Oct 30
First Quarter
Nov 6
Full

Hourly Weather History & Observations

Time (CDT) Temp. Windchill Dew Point Humidity Pressure Visibility Wind Dir Wind Speed Gust Speed Precip Events Conditions
12:08 AM 46.4 °F - 41.0 °F 81% 30.03 in 2.5 mi East 1.2 mph - N/A   Haze
12:13 AM 46.4 °F - 41.0 °F 81% 30.03 in 3.0 mi Calm Calm - N/A   Haze
12:38 AM 46.4 °F 44.3 °F 41.0 °F 81% 30.03 in 1.8 mi East 4.6 mph - N/A   Haze
12:43 AM 44.6 °F 42.2 °F 41.0 °F 87% 30.03 in 1.5 mi ESE 4.6 mph - N/A   Haze
12:48 AM 44.6 °F 43.1 °F 41.0 °F 87% 30.03 in 1.5 mi ESE 3.5 mph - N/A   Clear
12:58 AM 44.4 °F - 40.8 °F 87% 30.02 in 1.5 mi ESE 2.3 mph - N/A   Clear
1:03 AM 44.6 °F 43.1 °F 41.0 °F 87% 30.02 in 2.0 mi ESE 3.5 mph - N/A   Clear
1:08 AM 44.6 °F 43.1 °F 42.8 °F 93% 30.02 in 2.5 mi East 3.5 mph - N/A   Clear
1:28 AM 44.6 °F 43.1 °F 41.0 °F 87% 30.01 in 3.0 mi East 3.5 mph - N/A   Clear
1:38 AM 44.6 °F 43.1 °F 42.8 °F 93% 30.01 in 2.5 mi ESE 3.5 mph - N/A   Clear
1:43 AM 44.6 °F 43.1 °F 42.8 °F 93% 30.00 in 1.5 mi ESE 3.5 mph - N/A   Clear
1:48 AM 44.6 °F 43.1 °F 42.8 °F 93% 30.00 in 1.8 mi ESE 3.5 mph - N/A   Clear
1:53 AM 44.6 °F 43.1 °F 42.8 °F 93% 30.00 in 3.0 mi ESE 3.5 mph - N/A   Clear
1:58 AM 44.1 °F - 43.0 °F 96% 30.00 in 4.0 mi East 2.3 mph - N/A   Clear
2:03 AM 42.8 °F - 42.8 °F 100% 30.00 in 3.0 mi East 1.2 mph - N/A   Clear
2:13 AM 44.6 °F - 42.8 °F 93% 29.99 in 4.0 mi East 2.3 mph - N/A   Clear
2:23 AM 44.6 °F 43.1 °F 44.6 °F 100% 29.99 in 3.0 mi East 3.5 mph - N/A   Clear
2:38 AM 44.6 °F 43.1 °F 42.8 °F 93% 29.99 in 4.0 mi East 3.5 mph - N/A   Clear
2:48 AM 44.6 °F - 42.8 °F 93% 29.99 in 4.0 mi East 2.3 mph - N/A   Clear
2:58 AM 44.4 °F 42.0 °F 44.1 °F 99% 29.97 in 3.0 mi East 4.6 mph - N/A   Clear
3:03 AM 44.6 °F 43.1 °F 42.8 °F 93% 29.98 in 4.0 mi ESE 3.5 mph - N/A   Clear
3:08 AM 44.6 °F - 42.8 °F 93% 29.98 in 4.0 mi ESE 2.3 mph - N/A   Clear
3:58 AM 43.7 °F 42.1 °F 43.5 °F 99% 29.94 in 4.0 mi ESE 3.5 mph - N/A   Clear
4:23 AM 42.8 °F 41.1 °F 42.8 °F 100% 29.94 in 6.0 mi SE 3.5 mph - N/A   Clear
4:33 AM 42.8 °F 41.1 °F 42.8 °F 100% 29.93 in 4.0 mi SE 3.5 mph - N/A   Clear
4:43 AM 42.8 °F - 42.8 °F 100% 29.93 in 5.0 mi SSE 2.3 mph - N/A   Clear
4:58 AM 43.5 °F - 43.5 °F 100% 29.92 in 4.0 mi SE 2.3 mph - N/A   Clear
5:03 AM 42.8 °F - 42.8 °F 100% 29.93 in 3.0 mi SE 1.2 mph - N/A   Clear
5:08 AM 42.8 °F - 41.0 °F 93% 29.93 in 3.0 mi Calm Calm - N/A   Clear
5:18 AM 42.8 °F - 42.8 °F 100% 29.93 in 4.0 mi Calm Calm - N/A   Clear
5:43 AM 42.8 °F 40.1 °F 42.8 °F 100% 29.92 in 5.0 mi ESE 4.6 mph - N/A   Clear
5:58 AM 41.5 °F 37.8 °F 41.5 °F 100% 29.91 in 6.0 mi ESE 5.8 mph - N/A   Clear
6:33 AM 42.8 °F 40.1 °F 42.8 °F 100% 29.91 in 5.0 mi East 4.6 mph - N/A   Clear
6:58 AM 43.0 °F 41.3 °F 43.0 °F 100% 29.91 in 5.0 mi ESE 3.5 mph - N/A   Clear
7:23 AM 42.8 °F - 42.8 °F 100% 29.91 in 5.0 mi Calm Calm - N/A   Clear
7:38 AM 42.8 °F - 42.8 °F 100% 29.91 in 5.0 mi Calm Calm - N/A   Clear
7:58 AM 42.6 °F 40.9 °F 42.6 °F 100% 29.91 in 2.5 mi SE 3.5 mph - N/A   Clear
8:03 AM 42.8 °F 41.1 °F 42.8 °F 100% 29.91 in 2.0 mi SE 3.5 mph - N/A   Clear
8:08 AM 42.8 °F 40.1 °F 42.8 °F 100% 29.90 in 2.5 mi SE 4.6 mph - N/A   Clear
8:18 AM 44.6 °F 41.4 °F 44.6 °F 100% 29.89 in 4.0 mi ESE 5.8 mph - N/A   Clear
8:58 AM 49.8 °F - 49.8 °F 100% 29.89 in 10.0 mi SSE 9.2 mph - N/A   Clear
9:58 AM 59.7 °F - 50.0 °F 70% 29.85 in 10.0 mi South 16.1 mph - N/A   Clear
11:58 AM 70.5 °F - 50.2 °F 48% 29.78 in 10.0 mi SSE 21.9 mph 32.2 mph N/A   Clear
12:58 PM 73.0 °F - 50.9 °F 46% 29.73 in 10.0 mi South 18.4 mph 27.6 mph N/A   Clear
1:58 PM 78.3 °F - 52.0 °F 40% 29.66 in 10.0 mi South 23.0 mph 33.4 mph N/A   Clear
2:58 PM 79.0 °F - 52.5 °F 40% 29.61 in 10.0 mi SSE 25.3 mph 31.1 mph N/A   Clear
3:58 PM 82.9 °F - 53.1 °F 36% 29.57 in 10.0 mi SSE 19.6 mph 32.2 mph N/A   Partly Cloudy
4:58 PM 84.7 °F - 54.0 °F 35% 29.54 in 10.0 mi South 26.5 mph 33.4 mph N/A   Clear
5:58 PM 84.4 °F - 52.0 °F 33% 29.52 in 10.0 mi South 21.9 mph 26.5 mph N/A   Partly Cloudy
6:58 PM 83.1 °F - 50.9 °F 33% 29.50 in 10.0 mi SSE 16.1 mph - N/A   Clear
7:58 PM 78.4 °F - 59.0 °F 51% 29.49 in 10.0 mi SSE 24.2 mph 32.2 mph N/A   Scattered Clouds
8:46 PM 77.0 °F - 62.6 °F 61% 29.51 in 10.0 mi SSE 24.2 mph 33.4 mph N/A Thunderstorm Light Drizzle
8:55 PM 77.0 °F - 60.8 °F 57% 29.49 in 10.0 mi SSE 24.2 mph 33.4 mph N/A   Scattered Clouds
8:58 PM 76.8 °F - 61.2 °F 58% 29.45 in 10.0 mi SSE 21.9 mph 33.4 mph 0.00 in   Scattered Clouds
8:59 PM 77.0 °F - 60.8 °F 57% 29.48 in 10.0 mi SSE 19.6 mph 33.4 mph N/A Thunderstorm Thunderstorm
9:01 PM 77.0 °F - 60.8 °F 57% 29.49 in 10.0 mi SSW 24.2 mph 34.5 mph N/A Thunderstorm Thunderstorm
9:03 PM 77.0 °F - 62.6 °F 61% 29.55 in 10.0 mi WSW 46.0 mph 49.5 mph N/A Thunderstorm Thunderstorm
9:05 PM 75.2 °F - 60.8 °F 61% 29.59 in 1.0 mi West 56.4 mph 74.8 mph N/A Rain , Thunderstorm Light Thunderstorms and Rain
9:06 PM 73.4 °F - 60.8 °F 65% 29.60 in 0.5 mi WNW 52.9 mph 74.8 mph N/A Rain , Thunderstorm Heavy Thunderstorms and Rain
9:11 PM 64.4 °F - 60.8 °F 88% 29.61 in 0.2 mi NNW 27.6 mph 74.8 mph N/A Fog , Rain , Thunderstorm Heavy Thunderstorms and Rain
9:12 PM 62.6 °F - 60.8 °F 94% 29.62 in 0.2 mi NNW 25.3 mph 74.8 mph N/A Fog , Rain , Thunderstorm Heavy Thunderstorms and Rain
9:17 PM 59.0 °F - 59.0 °F 100% 29.62 in 0.5 mi NNW 13.8 mph 50.6 mph N/A Fog , Rain , Thunderstorm Heavy Thunderstorms and Rain
9:22 PM 59.0 °F - 59.0 °F 100% 29.60 in 2.5 mi NNW 15.0 mph 31.1 mph N/A Rain , Thunderstorm Heavy Thunderstorms and Rain
9:27 PM 59.0 °F - 59.0 °F 100% 29.60 in 5.0 mi North 13.8 mph - N/A Rain , Thunderstorm Light Thunderstorms and Rain
9:32 PM 60.8 °F - 60.8 °F 100% 29.60 in 6.0 mi North 11.5 mph - N/A Rain , Thunderstorm Light Thunderstorms and Rain
9:33 PM 60.8 °F - 60.8 °F 100% 29.60 in 7.0 mi North 10.4 mph - N/A Rain , Thunderstorm Light Rain
9:38 PM 60.8 °F - 60.8 °F 100% 29.60 in 10.0 mi NNW 8.1 mph - N/A Rain , Thunderstorm Light Rain
9:43 PM 60.8 °F - 60.8 °F 100% 29.62 in 10.0 mi North 6.9 mph - N/A Rain , Thunderstorm Light Rain
9:58 PM 61.0 °F - 61.0 °F 100% 29.59 in 10.0 mi North 5.8 mph - 0.87 in Thunderstorm Light Drizzle
10:12 PM 60.8 °F - 60.8 °F 100% 29.59 in 10.0 mi NW 10.4 mph - N/A   Mostly Cloudy
10:58 PM 62.6 °F - 59.2 °F 89% 29.60 in 10.0 mi Variable 4.6 mph - 0.00 in   Scattered Clouds
11:09 PM 62.6 °F - 59.0 °F 88% 29.63 in 10.0 mi SE 5.8 mph - N/A   Light Drizzle
11:34 PM 60.8 °F - 60.8 °F 100% 29.61 in 9.0 mi SE 10.4 mph - N/A   Light Drizzle
11:43 PM 60.8 °F - 60.8 °F 100% 29.65 in 8.0 mi SSW 10.4 mph - N/A   Overcast
11:48 PM 60.8 °F - 60.8 °F 100% 29.65 in 10.0 mi SSW 10.4 mph - N/A   Mostly Cloudy
11:53 PM 60.8 °F - 60.8 °F 100% 29.63 in 8.0 mi South 8.1 mph - N/A   Mostly Cloudy
11:58 PM 60.4 °F - 60.4 °F 100% 29.61 in 7.0 mi South 6.9 mph - 0.00 in   Mostly Cloudy
11:59 PM 60.8 °F - 60.8 °F 100% 29.65 in 7.0 mi SSW 6.9 mph - N/A Rain Light Rain